period_start,C,m1,H,J0,J1,J2,J3,J4,J5,JA,JB,JC,JD,JJ,JK,JN,#
2017-05-10 00:01:17,0.03,0.74,0.00,24.24,26.87,30.27,14.38,48.58,1014.67,2032.01,3201.70,2892.74,3308.04,600.29,592.72,20.98,0000 0000 0000 0000 000000
2017-05-10 00:06:18,0.03,0.74,0.00,24.27,26.88,30.25,14.37,48.57,1014.68,2032.01,3200.92,2892.03,3307.38,600.11,592.42,21.03,0000 0000 0000 0000 000000
2017-05-10 00:11:19,0.05,0.74,0.00,24.28,26.89,30.23,14.39,48.67,1014.68,2032.00,3199.99,2891.46,3306.71,600.22,592.42,21.08,0000 0000 0000 0000 000000
2017-05-10 00:16:20,0.02,0.74,0.00,24.29,26.90,30.24,14.47,48.77,1014.69,2032.00,3199.12,2891.00,3306.03,600.14,592.42,21.13,0000 0000 0000 0000 000000
2017-05-10 00:21:21,0.04,0.74,0.00,24.33,26.90,30.23,14.33,48.53,1014.69,2032.00,3198.58,2890.48,3305.54,599.94,592.11,21.18,0000 0000 0000 0000 000000
2017-05-10 00:26:22,0.01,0.75,0.00,24.35,26.90,30.24,14.44,48.71,1014.76,2032.00,3197.89,2890.01,3304.99,600.12,592.40,21.23,0000 0000 0000 0000 000000
2017-05-10 00:31:24,0.05,0.75,0.00,24.32,26.90,30.22,14.47,48.67,1015.05,2032.00,3197.05,2889.48,3304.28,600.17,592.61,21.28,0000 0000 0000 0000 000000
2017-05-10 00:36:25,0.02,0.75,0.00,24.34,26.90,30.21,14.43,48.73,1015.14,2032.00,3196.22,2888.99,3303.84,599.85,592.38,21.33,0000 0000 0000 0000 000000
2017-05-10 00:41:27,0.05,0.75,0.00,24.35,26.90,30.21,14.42,48.60,1015.14,2032.00,3195.49,2888.32,3303.08,600.28,592.74,21.38,0000 0000 0000 0000 000000
2017-05-10 00:46:28,0.01,0.75,0.00,24.32,26.89,30.20,14.32,48.57,1015.15,2032.00,3194.87,2887.99,3302.61,600.04,592.52,21.43,0000 0000 0000 0000 000000
2017-05-10 00:51:29,0.04,0.75,0.00,24.24,26.88,30.23,14.50,48.71,1015.15,2032.00,3193.99,2887.39,3301.98,600.15,592.76,21.48,0000 0000 0000 0000 000000
2017-05-10 00:56:30,0.03,0.76,0.00,24.25,26.88,30.24,14.31,48.63,1015.15,2032.00,3193.10,2886.98,3301.22,600.03,592.74,21.53,0000 0000 0000 0000 000000
2017-05-10 01:01:32,0.04,0.76,0.00,24.05,26.88,30.20,14.41,48.83,1015.15,2032.00,3192.41,2886.23,3300.87,599.95,592.98,21.58,0000 0000 0000 0000 000000
2017-05-10 01:06:34,0.02,0.76,0.00,24.25,26.88,30.20,14.40,48.76,1015.16,2032.00,3191.76,2885.94,3300.09,600.16,592.98,21.63,0000 0000 0000 0000 000000
2017-05-10 01:11:35,0.04,0.76,0.00,24.33,26.90,30.22,14.34,48.67,1015.16,2032.00,3190.94,2885.18,3299.60,599.86,592.42,21.68,0000 0000 0000 0000 000000
2017-05-10 01:16:36,0.02,0.76,0.00,24.33,26.90,30.22,14.35,48.62,1015.16,2032.00,3190.07,2884.89,3298.98,600.04,592.51,21.73,0000 0000 0000 0000 000000
2017-05-10 01:21:37,0.05,0.77,0.00,24.32,26.90,30.22,14.34,48.78,1015.18,2032.00,3189.20,2884.09,3298.13,599.84,592.39,21.78,0000 0000 0000 0000 000000
2017-05-10 01:26:38,0.02,0.77,0.00,24.36,26.90,30.22,14.44,48.67,1015.20,2032.00,3188.52,2883.82,3297.78,600.20,592.61,21.83,0000 0000 0000 0000 000000
2017-05-10 01:31:40,0.04,0.77,0.00,24.35,26.90,30.22,14.47,48.69,1015.25,2031.99,3187.73,2883.04,3297.03,599.99,592.56,21.88,0000 0000 0000 0000 000000
2017-05-10 01:36:41,0.05,0.77,0.00,24.35,26.90,30.21,14.36,48.63,1015.29,2031.99,3186.84,2882.53,3296.27,600.15,592.73,21.93,0000 0000 0000 0000 000000
2017-05-10 01:41:42,0.02,0.77,0.00,24.36,26.91,30.21,14.45,48.71,1015.38,2031.98,3185.98,2882.01,3295.85,600.03,592.59,21.99,0000 0000 0000 0000 000000
2017-05-10 01:46:44,0.05,0.78,0.00,24.38,26.91,30.21,14.34,48.74,1015.53,2031.99,3185.06,2881.31,3295.03,599.86,592.48,22.04,0000 0000 0000 0000 000000
2017-05-10 01:51:45,0.03,0.78,0.00,24.39,26.92,30.21,14.39,48.65,1015.60,2031.99,3184.15,2880.94,3294.26,600.13,592.78,22.09,0000 0000 0000 0000 000000
2017-05-10 01:56:46,0.05,0.78,0.00,24.36,26.92,30.21,14.45,48.68,1015.64,2031.96,3183.27,2880.11,3293.61,600.17,592.85,22.14,0000 0000 0000 0000 000000
2017-05-10 02:01:47,0.04,0.78,0.00,24.38,26.92,30.21,14.42,48.75,1015.64,2031.98,3182.33,2879.59,3292.95,599.89,592.59,22.19,0000 0000 0000 0000 000000
2017-05-10 02:06:48,0.03,0.79,0.00,24.39,26.92,30.20,14.37,48.63,1015.64,2031.95,3181.41,2879.01,3292.13,600.03,592.65,22.24,0000 0000 0000 0000 000000
2017-05-10 02:11:49,0.03,0.79,0.00,24.41,26.92,30.22,14.40,48.70,1015.64,2031.98,3180.70,2878.77,3291.75,600.03,592.63,22.29,0000 0000 0000 0000 000000
2017-05-10 02:16:51,0.04,0.79,0.00,24.41,26.92,30.21,14.40,48.74,1015.64,2031.98,3179.77,2878.03,3290.97,599.82,592.54,22.34,0000 0000 0000 0000 000000
2017-05-10 02:21:52,0.05,0.79,0.00,24.42,26.93,30.21,14.40,48.77,1015.65,2031.90,3178.83,2877.27,3290.09,599.95,592.75,22.39,0000 0000 0000 0000 000000
2017-05-10 02:26:54,0.03,0.79,0.00,24.42,26.94,30.21,14.32,48.67,1015.66,2031.89,3177.93,2876.90,3289.45,599.85,592.50,22.44,0000 0000 0000 0000 000000
2017-05-10 02:31:55,0.04,0.80,0.00,24.40,26.95,30.21,14.32,48.81,1015.68,2031.84,3177.02,2876.09,3288.86,599.62,592.30,22.49,0000 0000 0000 0000 000000
2017-05-10 02:36:56,0.03,0.80,0.00,24.42,26.95,30.21,14.36,48.78,1015.73,2031.75,3176.13,2875.61,3288.06,600.00,592.86,22.54,0000 0000 0000 0000 000000
2017-05-10 02:41:57,0.05,0.80,0.00,24.41,26.95,30.21,14.36,48.93,1015.78,2031.83,3175.26,2875.01,3287.51,600.20,592.92,22.59,0000 0000 0000 0000 000000
2017-05-10 02:46:59,0.03,0.80,0.00,24.40,26.95,30.22,14.40,48.89,1015.88,2031.72,3174.43,2874.39,3286.80,599.64,592.44,22.64,0000 0000 0000 0000 000000
2017-05-10 02:52:00,0.04,0.80,0.00,24.36,26.97,30.23,14.42,48.86,1016.00,2031.69,3173.57,2873.97,3286.04,600.33,593.27,22.69,0000 0000 0000 0000 000000
2017-05-10 02:57:01,0.04,0.81,0.00,24.35,26.97,30.23,14.40,48.82,1016.09,2031.62,3172.72,2873.20,3285.37,599.56,592.71,22.74,0000 0000 0000 0000 000000
2017-05-10 03:02:03,0.01,0.81,0.00,24.43,26.97,30.23,14.41,48.78,1016.10,2031.39,3171.88,2872.76,3284.82,599.91,592.75,22.79,0000 0000 0000 0000 000000
2017-05-10 03:07:04,0.04,0.81,0.00,24.44,26.98,30.23,14.32,48.67,1016.09,2031.38,3170.96,2872.04,3284.04,599.78,592.61,22.84,0000 0000 0000 0000 000000
2017-05-10 03:12:05,0.03,0.81,0.00,24.40,27.00,30.22,14.45,48.90,1016.12,2031.19,3170.07,2871.56,3283.31,600.09,593.03,22.89,0000 0000 0000 0000 000000
2017-05-10 03:17:06,0.02,0.81,0.00,24.42,27.00,30.23,14.38,48.78,1016.13,2031.07,3169.16,2870.97,3282.67,600.13,592.96,22.94,0000 0000 0000 0000 000000
2017-05-10 03:22:08,0.04,0.81,0.00,24.34,27.00,30.24,14.41,48.84,1016.13,2031.04,3168.27,2870.15,3282.01,600.20,593.27,22.99,0000 0000 0000 0000 000000
2017-05-10 03:27:09,0.04,0.82,0.00,24.31,27.00,30.23,14.42,48.77,1016.13,2031.05,3167.51,2869.82,3281.25,599.97,593.09,23.04,0000 0000 0000 0000 000000
2017-05-10 03:32:10,0.04,0.82,0.00,24.39,27.00,30.24,14.48,48.92,1016.13,2031.03,3166.53,2869.05,3280.67,600.05,592.95,23.09,0000 0000 0000 0000 000000
2017-05-10 03:37:11,0.04,0.82,0.00,24.27,27.00,30.23,14.44,48.87,1016.14,2031.01,3165.65,2868.54,3280.00,600.11,593.37,23.14,0000 0000 0000 0000 000000
2017-05-10 03:42:13,0.03,0.82,0.00,24.36,27.01,30.23,14.42,48.99,1016.14,2031.01,3164.86,2867.99,3279.25,600.06,593.12,23.19,0000 0000 0000 0000 000000
2017-05-10 03:47:14,0.04,0.82,0.00,24.35,27.01,30.22,14.37,48.86,1016.16,2031.00,3164.02,2867.41,3278.75,600.03,593.07,23.24,0000 0000 0000 0000 000000
2017-05-10 03:52:16,0.03,0.83,0.00,24.37,27.01,30.23,14.36,48.85,1016.16,2031.01,3163.10,2866.93,3278.02,599.89,592.86,23.29,0000 0000 0000 0000 000000
2017-05-10 03:57:17,0.06,0.83,0.00,24.37,27.01,30.22,14.31,48.83,1016.17,2031.01,3162.18,2866.10,3277.26,599.59,592.59,23.34,0000 0000 0000 0000 000000
2017-05-10 04:02:18,0.03,0.83,0.00,24.34,27.01,30.23,14.40,48.82,1016.18,2031.00,3161.35,2865.77,3276.69,599.81,592.86,23.39,0000 0000 0000 0000 000000
2017-05-10 04:07:20,0.04,0.83,0.00,24.29,27.01,30.21,14.39,48.83,1016.30,2031.01,3160.39,2865.04,3276.02,599.96,593.24,23.44,0000 0000 0000 0000 000000
2017-05-10 04:12:21,0.05,0.83,0.00,24.27,27.00,30.20,14.36,48.92,1016.46,2031.00,3159.67,2864.59,3275.32,599.88,593.17,23.49,0000 0000 0000 0000 000000
2017-05-10 04:17:22,0.03,0.84,0.00,24.29,27.00,30.19,14.45,48.95,1016.51,2031.00,3158.74,2864.00,3274.78,600.06,593.46,23.54,0000 0000 0000 0000 000000
2017-05-10 04:22:24,0.05,0.84,0.00,24.32,27.00,30.19,14.38,48.95,1016.56,2031.00,3157.80,2863.36,3274.03,600.03,593.37,23.59,0000 0000 0000 0000 000000
2017-05-10 04:27:25,0.03,0.84,0.00,24.30,27.00,30.19,14.35,48.82,1016.62,2031.01,3156.91,2862.89,3273.31,600.04,593.50,23.64,0000 0000 0000 0000 000000
2017-05-10 04:32:26,0.05,0.84,0.00,24.31,27.00,30.18,14.45,48.96,1016.62,2031.01,3155.97,2862.08,3272.73,600.13,593.56,23.69,0000 0000 0000 0000 000000
2017-05-10 04:37:27,0.03,0.85,0.00,24.26,27.00,30.18,14.49,49.02,1016.62,2031.00,3155.08,2861.70,3272.00,599.75,593.32,23.74,0000 0000 0000 0000 000000
2017-05-10 04:42:29,0.04,0.85,0.00,24.27,26.98,30.17,14.35,48.89,1016.62,2031.00,3154.24,2861.02,3271.35,599.89,593.41,23.79,0000 0000 0000 0000 000000
2017-05-10 04:47:30,0.05,0.85,0.00,24.31,26.97,30.16,14.33,48.91,1016.62,2031.00,3153.32,2860.38,3270.74,599.77,593.26,23.84,0000 0000 0000 0000 000000
2017-05-10 04:52:31,0.03,0.85,0.00,24.26,26.97,30.16,14.49,49.06,1016.62,2031.00,3152.53,2859.99,3270.03,600.28,593.85,23.89,0000 0000 0000 0000 000000
2017-05-10 04:57:33,0.05,0.85,0.00,24.23,26.97,30.16,14.39,48.98,1016.62,2031.01,3151.66,2859.37,3269.41,600.05,593.69,23.94,0000 0000 0000 0000 000000
2017-05-10 05:02:34,0.04,0.86,0.00,24.24,26.97,30.15,14.47,48.99,1016.63,2031.00,3150.63,2858.78,3268.67,600.08,593.61,23.99,0000 0000 0000 0000 000000
2017-05-10 05:07:35,0.03,0.86,0.00,24.26,26.96,30.15,14.44,48.98,1016.65,2031.03,3149.89,2858.05,3268.02,600.07,593.58,24.04,0000 0000 0000 0000 000000
2017-05-10 05:12:37,0.04,0.86,0.00,24.35,26.95,30.15,14.39,48.85,1016.68,2031.02,3149.05,2857.73,3267.41,600.18,593.49,24.09,0000 0000 0000 0000 000000
2017-05-10 05:17:38,0.03,0.86,0.00,24.20,26.95,30.13,14.41,48.94,1016.90,2031.02,3148.12,2857.03,3266.79,600.05,593.85,24.14,0000 0000 0000 0000 000000
2017-05-10 05:22:39,0.05,0.87,0.00,24.17,26.95,30.13,14.50,49.02,1017.04,2031.04,3147.17,2856.45,3266.02,600.03,593.88,24.19,0000 0000 0000 0000 000000
2017-05-10 05:27:40,0.03,0.87,0.00,24.26,26.95,30.14,14.35,48.88,1017.10,2031.04,3146.23,2855.95,3265.34,599.97,593.69,24.24,0000 0000 0000 0000 000000
2017-05-10 05:32:42,0.05,0.87,0.00,24.27,26.95,30.14,14.36,48.83,1017.10,2031.05,3145.30,2855.14,3264.72,599.75,593.59,24.29,0000 0000 0000 0000 000000
2017-05-10 05:37:43,0.04,0.87,0.00,24.25,26.95,30.13,14.42,48.84,1017.10,2031.05,3144.24,2854.61,3263.97,599.98,593.88,24.34,0000 0000 0000 0000 000000
2017-05-10 05:42:45,0.04,0.88,0.00,24.19,26.95,30.13,14.39,48.98,1017.11,2031.06,3143.22,2853.93,3263.12,599.75,593.75,24.39,0000 0000 0000 0000 000000
2017-05-10 05:47:46,0.06,0.88,0.00,24.14,26.94,30.12,14.50,48.97,1017.14,2031.08,3142.05,2853.12,3262.44,600.07,594.11,24.44,0000 0000 0000 0000 000000
2017-05-10 05:52:47,0.06,0.88,0.00,24.26,26.94,30.12,14.38,48.90,1017.30,2031.05,3140.80,2852.28,3261.53,600.06,593.98,24.49,0000 0000 0000 0000 000000
2017-05-10 05:57:48,0.05,0.88,0.00,24.26,26.93,30.13,14.36,48.86,1017.54,2031.03,3139.64,2851.65,3260.66,599.64,593.75,24.54,0000 0000 0000 0000 000000
2017-05-10 06:02:50,0.03,0.89,0.00,24.23,26.92,30.12,14.47,48.90,1017.59,2031.05,3138.75,2851.01,3260.01,600.19,594.30,24.59,0000 0000 0000 0000 000000
2017-05-10 06:07:51,0.05,0.89,0.00,24.24,26.92,30.13,14.44,48.88,1017.59,2031.13,3137.79,2850.47,3259.34,600.02,594.17,24.64,0000 0000 0000 0000 000000
2017-05-10 06:12:52,0.04,0.89,0.00,24.22,26.92,30.12,14.42,48.78,1017.60,2031.13,3136.63,2849.86,3258.57,599.86,593.95,24.69,0000 0000 0000 0000 000000
2017-05-10 06:17:54,0.04,0.89,0.00,24.19,26.92,30.11,14.36,48.82,1017.62,2031.15,3135.57,2849.06,3257.89,600.16,594.44,24.74,0000 0000 0000 0000 000000
2017-05-10 06:22:55,0.05,0.90,0.00,24.24,26.92,30.11,14.43,48.89,1017.61,2031.12,3134.67,2848.44,3256.99,600.03,594.15,24.79,0000 0000 0000 0000 000000
2017-05-10 06:27:56,0.06,0.90,0.00,24.20,26.92,30.12,14.50,48.96,1017.62,2031.08,3133.32,2847.54,3256.04,600.15,594.25,24.84,0000 0000 0000 0000 000000
2017-05-10 06:32:57,0.06,0.90,0.00,24.17,26.92,30.12,14.45,48.92,1017.62,2031.18,3132.09,2846.78,3255.07,600.13,594.44,24.89,0000 0000 0000 0000 000000
2017-05-10 06:37:59,0.09,0.91,0.00,24.22,26.90,30.10,14.45,48.93,1017.66,2031.07,3130.42,2845.61,3253.86,599.83,594.07,24.94,0000 0000 0000 0000 000000
2017-05-10 06:43:00,0.04,0.91,0.00,24.22,26.90,30.11,14.49,48.87,1017.85,2031.16,3129.21,2844.92,3252.98,600.27,594.56,24.99,0000 0000 0000 0000 000000
2017-05-10 06:48:02,0.07,0.91,0.00,24.23,26.90,30.11,14.43,48.88,1017.98,2031.19,3128.07,2844.09,3252.11,600.35,594.61,25.04,0000 0000 0000 0000 000000
2017-05-10 06:53:03,0.08,0.92,0.00,24.22,26.90,30.11,14.50,48.79,1018.04,2031.43,3126.95,2843.37,3251.30,599.96,594.40,25.09,0000 0000 0000 0000 000000
2017-05-10 06:58:04,0.04,0.92,0.00,24.18,26.90,30.10,14.43,48.92,1018.06,2031.38,3125.79,2842.70,3250.47,599.88,594.39,25.14,0000 0000 0000 0000 000000
2017-05-10 07:03:06,0.08,0.92,0.00,24.22,26.90,30.11,14.44,48.98,1018.07,2031.36,3124.56,2841.92,3249.52,600.04,594.35,25.19,0000 0000 0000 0000 000000
2017-05-10 07:08:07,0.04,0.92,0.00,24.22,26.90,30.10,14.45,48.96,1018.08,2031.22,3123.10,2840.89,3248.41,599.85,594.41,25.24,0000 0000 0000 0000 000000
2017-05-10 07:13:08,0.08,0.93,0.00,24.21,26.90,30.10,14.42,48.84,1018.08,2031.11,3121.25,2839.75,3247.14,600.03,594.53,25.29,0000 0000 0000 0000 000000
2017-05-10 07:18:10,0.09,0.93,0.00,24.26,26.90,30.10,14.40,48.70,1018.08,2031.20,3119.48,2838.68,3245.94,599.88,594.22,25.34,0000 0000 0000 0000 000000
2017-05-10 07:23:11,0.05,0.94,0.00,24.22,26.90,30.10,14.49,48.83,1018.09,2031.24,3118.18,2837.85,3244.91,600.29,594.70,25.39,0000 0000 0000 0000 000000
2017-05-10 07:28:12,0.06,0.94,0.00,24.20,26.90,30.11,14.44,48.91,1018.13,2031.21,3116.97,2837.03,3244.02,600.05,594.57,25.44,0000 0000 0000 0000 000000
2017-05-10 07:33:13,0.06,0.94,0.00,24.23,26.90,30.11,14.40,48.78,1018.26,2031.19,3115.72,2836.22,3243.09,599.69,594.18,25.49,0000 0000 0000 0000 000000
2017-05-10 07:38:14,0.06,0.95,0.00,24.25,26.90,30.11,14.51,48.87,1018.47,2031.12,3114.51,2835.32,3242.07,600.18,594.79,25.55,0000 0000 0000 0000 000000
2017-05-10 07:43:16,0.07,0.95,0.00,24.27,26.90,30.11,14.42,48.90,1018.55,2031.11,3113.07,2834.45,3240.96,599.70,594.47,25.60,0000 0000 0000 0000 000000
2017-05-10 07:48:17,0.08,0.95,0.00,24.25,26.90,30.11,14.39,48.74,1018.57,2031.06,3111.19,2833.16,3239.61,599.86,594.45,25.65,0000 0000 0000 0000 000000
2017-05-10 07:53:19,0.07,0.96,0.00,24.22,26.90,30.11,14.47,48.83,1018.57,2031.06,3109.55,2832.08,3238.37,600.05,594.78,25.70,0000 0000 0000 0000 000000
2017-05-10 07:58:20,0.06,0.96,0.00,24.31,26.90,30.13,14.48,48.86,1018.57,2031.06,3108.02,2831.06,3237.18,599.97,594.52,25.75,0000 0000 0000 0000 000000
2017-05-10 08:03:22,0.07,0.97,0.00,24.24,26.91,30.12,14.36,48.92,1018.57,2031.05,3106.48,2830.04,3236.00,599.90,594.62,25.80,0000 0000 0000 0000 000000
2017-05-10 08:08:23,0.07,0.97,0.00,24.25,26.91,30.12,14.43,48.86,1018.58,2031.06,3105.11,2829.09,3234.97,600.05,594.71,25.85,0000 0000 0000 0000 000000
2017-05-10 08:13:24,0.08,0.97,0.00,24.22,26.92,30.12,14.50,48.90,1018.60,2031.13,3103.60,2828.18,3233.86,600.15,594.87,25.90,0000 0000 0000 0000 000000
2017-05-10 08:18:26,0.07,0.98,0.00,24.24,26.92,30.12,14.44,49.00,1018.62,2031.10,3102.17,2827.16,3232.65,599.98,594.63,25.95,0000 0000 0000 0000 000000
2017-05-10 08:23:27,0.08,0.98,0.00,24.23,26.91,30.13,14.47,48.92,1018.70,2031.11,3100.76,2826.14,3231.58,599.95,594.73,26.00,0000 0000 0000 0000 000000
2017-05-10 08:28:28,0.06,0.98,0.00,24.25,26.91,30.14,14.40,49.05,1018.85,2031.07,3099.38,2825.09,3230.40,599.86,594.69,26.05,0000 0000 0000 0000 000000
2017-05-10 08:33:29,0.06,0.99,0.00,24.24,26.90,30.13,14.44,49.09,1018.93,2031.06,3098.00,2824.14,3229.39,600.00,594.90,26.10,0000 0000 0000 0000 000000
2017-05-10 08:38:30,0.06,0.99,0.00,24.21,26.90,30.13,14.46,48.93,1019.00,2031.05,3096.72,2823.18,3228.36,600.05,595.04,26.15,0000 0000 0000 0000 000000
2017-05-10 08:43:32,0.06,0.99,0.00,24.21,26.90,30.14,14.43,49.07,1019.05,2031.05,3095.55,2822.44,3227.47,600.05,595.08,26.20,0000 0000 0000 0000 000000
2017-05-10 08:48:33,0.06,1.00,0.00,24.20,26.90,30.14,14.36,48.98,1019.06,2031.05,3094.04,2821.37,3226.29,599.76,594.74,26.25,0000 0000 0000 0000 000000
2017-05-10 08:53:35,0.07,1.00,0.00,24.18,26.90,30.13,14.43,49.12,1019.06,2031.10,3092.75,2820.59,3225.28,599.91,595.01,26.30,0000 0000 0000 0000 000000
2017-05-10 08:58:36,0.06,1.00,0.00,24.24,26.90,30.13,14.41,49.02,1019.06,2031.12,3091.56,2819.80,3224.40,600.20,595.21,26.35,0000 0000 0000 0000 000000
2017-05-10 09:03:37,0.07,1.01,0.00,24.23,26.90,30.14,14.40,48.99,1019.06,2031.05,3090.00,2818.77,3223.25,599.93,594.97,26.40,0000 0000 0000 0000 000000
2017-05-10 09:08:38,0.08,1.01,0.00,24.23,26.90,30.14,14.51,49.04,1019.06,2031.03,3088.39,2817.61,3221.92,600.15,595.21,26.45,0000 0000 0000 0000 000000
2017-05-10 09:13:39,0.06,1.02,0.00,24.20,26.89,30.14,14.50,49.07,1019.08,2031.16,3087.06,2816.91,3220.99,599.97,595.03,26.50,0000 0000 0000 0000 000000
2017-05-10 09:18:40,0.07,1.02,0.00,24.20,26.89,30.14,14.35,49.05,1019.16,2031.32,3085.79,2816.07,3220.07,599.73,594.87,26.55,0000 0000 0000 0000 000000
2017-05-10 09:23:42,0.06,1.02,0.00,24.15,26.88,30.13,14.47,49.10,1019.43,2031.33,3084.45,2815.29,3219.15,599.84,595.30,26.60,0000 0000 0000 0000 000000
2017-05-10 09:28:43,0.05,1.02,0.00,24.19,26.87,30.13,14.54,48.99,1019.53,2031.23,3083.26,2814.56,3218.20,600.16,595.54,26.65,0000 0000 0000 0000 000000
2017-05-10 09:33:44,0.05,1.03,0.00,24.19,26.87,30.13,14.47,49.01,1019.55,2031.32,3082.26,2813.93,3217.47,599.93,595.28,26.70,0000 0000 0000 0000 000000
2017-05-10 09:38:46,0.06,1.03,0.00,24.24,26.87,30.14,14.47,48.98,1019.55,2031.49,3081.30,2813.11,3216.89,599.97,595.27,26.75,0000 0000 0000 0000 000000
2017-05-10 09:43:47,0.06,1.03,0.00,24.18,26.87,30.13,14.52,48.85,1019.55,2031.61,3080.42,2812.62,3216.06,600.38,596.01,26.80,0000 0000 0000 0000 000000
2017-05-10 09:48:49,0.04,1.04,0.00,24.22,26.87,30.13,14.49,48.98,1019.56,2031.73,3079.48,2812.01,3215.28,600.33,595.58,26.85,0000 0000 0000 0000 000000
2017-05-10 09:53:50,0.06,1.04,0.00,24.27,26.87,30.13,14.45,48.96,1019.56,2031.76,3078.41,2811.42,3214.46,600.25,595.46,26.90,0000 0000 0000 0000 000000
2017-05-10 09:58:51,0.03,1.04,0.00,24.16,26.87,30.13,14.36,48.96,1019.57,2031.84,3077.49,2810.90,3213.81,599.68,595.15,26.95,0000 0000 0000 0000 000000
2017-05-10 10:03:53,0.06,1.05,0.00,24.18,26.86,30.12,14.42,48.88,1019.58,2031.91,3076.59,2810.12,3213.04,599.96,595.33,27.00,0000 0000 0000 0000 000000
2017-05-10 10:08:54,0.05,1.05,0.00,24.18,26.85,30.12,14.54,48.82,1019.67,2031.94,3075.63,2809.53,3212.20,600.00,595.51,27.05,0000 0000 0000 0000 000000
2017-05-10 10:13:56,0.04,1.05,0.00,24.21,26.85,30.12,14.43,48.86,1019.71,2031.93,3074.58,2808.90,3211.46,600.11,595.59,27.10,0000 0000 0000 0000 000000
2017-05-10 10:18:57,0.04,1.05,0.00,24.21,26.85,30.12,14.44,48.95,1019.94,2031.85,3073.51,2808.08,3210.67,599.78,595.35,27.15,0000 0000 0000 0000 000000
2017-05-10 10:23:58,0.04,1.05,0.00,24.14,26.85,30.12,14.40,48.89,1020.01,2031.81,3072.54,2807.51,3209.93,600.10,595.80,27.20,0000 0000 0000 0000 000000
2017-05-10 10:29:00,0.06,1.06,0.00,24.12,26.85,30.10,14.45,48.97,1020.03,2031.85,3071.41,2806.73,3209.07,599.74,595.61,27.25,0000 0000 0000 0000 000000
2017-05-10 10:34:01,0.03,1.06,0.00,24.20,26.84,30.10,14.48,48.83,1020.03,2031.84,3070.49,2806.02,3208.17,600.01,595.67,27.30,0000 0000 0000 0000 000000
2017-05-10 10:39:02,0.06,1.06,0.00,24.24,26.82,30.11,14.47,48.77,1020.03,2031.87,3069.58,2805.48,3207.61,600.32,595.85,27.35,0000 0000 0000 0000 000000
2017-05-10 10:44:03,0.03,1.07,0.00,24.12,26.82,30.10,14.51,48.88,1020.03,2031.95,3068.65,2804.99,3206.97,600.27,596.08,27.40,0000 0000 0000 0000 000000
2017-05-10 10:49:05,0.06,1.07,0.00,24.14,26.82,30.09,14.44,48.80,1020.04,2031.96,3067.69,2804.15,3206.12,599.88,595.62,27.45,0000 0000 0000 0000 000000
2017-05-10 10:54:06,0.06,1.07,0.00,24.22,26.82,30.09,14.48,48.90,1020.05,2031.97,3066.56,2803.47,3205.25,599.99,595.56,27.50,0000 0000 0000 0000 000000
2017-05-10 10:59:07,0.04,1.07,0.00,24.22,26.82,30.10,14.43,48.84,1020.05,2031.97,3065.36,2802.85,3204.38,600.07,595.70,27.55,0000 0000 0000 0000 000000
2017-05-10 11:04:08,0.05,1.08,0.00,24.17,26.80,30.09,14.55,48.93,1020.08,2031.97,3064.19,2802.04,3203.68,599.66,595.45,27.60,0000 0000 0000 0000 000000
2017-05-10 11:09:10,0.05,1.08,0.00,24.12,26.80,30.08,14.38,48.85,1020.12,2031.97,3062.95,2801.32,3202.91,599.95,595.79,27.65,0000 0000 0000 0000 000000
2017-05-10 11:14:11,0.04,1.08,0.00,24.17,26.80,30.07,14.39,48.84,1020.13,2031.97,3061.88,2800.79,3202.08,600.02,595.77,27.70,0000 0000 0000 0000 000000
2017-05-10 11:19:12,0.06,1.09,0.00,24.16,26.80,30.07,14.53,48.93,1020.23,2031.97,3060.75,2800.01,3201.26,600.29,596.06,27.75,0000 0000 0000 0000 000000
2017-05-10 11:24:13,0.06,1.09,0.00,24.15,26.79,30.06,14.51,48.88,1020.40,2031.97,3059.64,2799.33,3200.48,600.33,596.34,27.80,0000 0000 0000 0000 000000
2017-05-10 11:29:15,0.06,1.09,0.00,24.16,26.78,30.06,14.51,48.92,1020.46,2031.98,3058.47,2798.63,3199.64,600.08,595.96,27.85,0000 0000 0000 0000 000000
2017-05-10 11:34:16,0.06,1.09,0.00,24.23,26.77,30.06,14.55,48.92,1020.52,2031.98,3057.17,2797.73,3198.70,600.19,596.10,27.90,0000 0000 0000 0000 000000
2017-05-10 11:39:18,0.11,1.10,0.00,24.22,26.77,30.06,14.43,48.93,1020.52,2031.98,3055.08,2796.41,3197.20,599.94,595.85,27.95,0000 0000 0000 0000 000000
2017-05-10 11:44:19,0.14,1.10,0.00,24.17,26.77,30.06,14.46,48.95,1020.52,2031.99,3052.42,2794.73,3195.32,600.01,595.89,28.00,0000 0000 0000 0000 000000
2017-05-10 11:49:20,0.13,1.11,0.00,24.20,26.77,30.05,14.47,48.96,1020.52,2031.99,3049.43,2792.71,3193.13,599.86,595.78,28.05,0000 0000 0000 0000 000000
2017-05-10 11:54:21,0.13,1.12,0.00,24.20,26.77,30.05,14.48,48.99,1020.52,2031.99,3046.75,2790.96,3191.13,599.78,595.69,28.10,0000 0000 0000 0000 000000
2017-05-10 11:59:22,0.07,1.12,0.00,24.20,26.76,30.04,14.41,48.99,1020.52,2031.99,3044.99,2789.76,3189.74,600.18,596.08,28.15,0000 0000 0000 0000 000000
2017-05-10 12:04:24,0.05,1.13,0.00,24.20,26.75,30.04,14.46,49.02,1020.52,2031.99,3043.86,2789.00,3188.92,599.79,595.75,28.20,0000 0000 0000 0000 000000
2017-05-10 12:09:25,0.06,1.13,0.00,24.26,26.75,30.03,14.47,48.98,1020.52,2031.99,3042.87,2788.23,3188.07,600.02,595.78,28.25,0000 0000 0000 0000 000000
2017-05-10 12:14:26,0.05,1.13,0.00,24.25,26.75,30.03,14.40,48.92,1020.53,2031.99,3041.84,2787.70,3187.26,599.68,595.59,28.30,0000 0000 0000 0000 000000
2017-05-10 12:19:28,0.07,1.14,0.00,24.18,26.75,30.02,14.49,49.01,1020.54,2031.99,3040.34,2786.74,3186.24,600.20,596.24,28.35,0000 0000 0000 0000 000000
2017-05-10 12:24:29,0.10,1.14,0.00,24.22,26.75,30.03,14.29,48.92,1020.53,2031.99,3038.42,2785.51,3184.86,599.37,595.26,28.40,0000 0000 0000 0000 000000
2017-05-10 12:29:30,0.08,1.15,0.00,24.28,26.74,30.02,14.50,48.98,1020.54,2031.99,3036.74,2784.37,3183.64,600.02,595.78,28.45,0000 0000 0000 0000 000000
2017-05-10 12:34:32,0.03,1.15,0.00,24.25,26.72,30.02,14.48,48.96,1020.55,2031.99,3035.74,2783.86,3182.86,600.06,595.85,28.50,0000 0000 0000 0000 000000
2017-05-10 12:39:33,0.06,1.15,0.00,24.17,26.72,30.02,14.47,49.05,1020.61,2031.99,3034.68,2783.04,3182.03,599.70,595.68,28.55,0000 0000 0000 0000 000000
2017-05-10 12:44:34,0.06,1.15,0.00,24.30,26.72,30.01,14.41,48.92,1020.58,2031.99,3033.73,2782.29,3181.20,599.82,595.63,28.60,0000 0000 0000 0000 000000
2017-05-10 12:49:35,0.05,1.16,0.00,24.23,26.72,30.02,14.47,48.87,1020.72,2031.99,3032.71,2781.76,3180.45,599.91,595.88,28.65,0000 0000 0000 0000 000000
2017-05-10 12:54:37,0.04,1.16,0.00,24.22,26.72,30.02,14.53,48.92,1020.82,2031.99,3031.69,2781.00,3179.71,600.04,596.05,28.70,0000 0000 0000 0000 000000